Voltar ao catálogo

FENGYUN 1C DEB

LostPO
NORAD 37684·DEBRIS·🇨🇳 China

Lançado May 10, 1999 de Taiyuan Satellite Launch Center

Loading…

Próximas Passagens (próximas 24 horas)

TLE

ObsoletoSource: Space-Track

Época: Mar 24, 2013, 22:12 UTC

1 37684U 99025EKZ 13083.92515196  .00001478  00000-0  13104-2 0  9997
2 37684  98.1651 128.1287 0252308 130.2246 354.4399 13.72645189272337

Acompanhe FENGYUN 1C DEB em tempo real com AllMySat

Download on the App Store